Tracking 28790 objects as of 19-Apr-2024
HD Live streaming from Space Station
objects crossing your sky now

TITAN 3C TRANSTAGE DEB

Track TITAN 3C TRANSTAGE DEB now!
10-day predictions


NORAD ID: 1684
Int'l Code: 1965-082AX
Perigee: 652.9 km
Apogee: 907.1 km
Inclination: 32.2 °
Period: 100.3 minutes
Semi major axis: 7151 km
RCS: 1.2615 m2 (large)
Launch date: October 15, 1965
Source: United States (US)
Launch site: AIR FORCE EASTERN TEST RANGE (AFETR)

Note: This is SATELLITE DEBRIS
Your satellite tracking list
Your tracking list is empty




NASA's NSSDC Master Catalog

Two Line Element Set (TLE):
1 01684U 65082AX  24109.91220039  .00007326  00000-0  20798-2 0  9998
2 01684  32.2161 347.8513 0177736  66.0681 295.8465 14.35659522 28815
Source of the keplerian elements: AFSPC